Date String (YYYY-MM-DD hh:mm:ss) UTC,Instrument flags,Ambient pressure (hPa),Sample flow (lpm),Bypass flow (lpm),Sample temperature (°C),Ambient temperature (°C),ASC tube jacket temperature (°C),LED temperature (°C),Box temperature (°C),Sample RH (%),Span deviation,Mass concentration (μg/m³),Mass concentration (μg/m³),Mass concentration (μg/m³)
DateTimeUTC,F1_M11,P_M11,Q1_M11,Q2_M11,T1_M11,T2_M11,T3_M11,T4_M11,T5_M11,U1_M11,ZSPAN_M11,X2_M11,X0_M11,X1_M11
2022-05-29 03:00:00,,0813.6,5.01,0.00,29.6,28.7,00.0,38.4,31.5,09.3,0000.0,0002.92,0009.98,0001.03
2022-05-29 03:01:00,,0813.6,5.00,0.00,29.6,28.5,00.0,38.4,31.5,09.3,0000.0,0002.83,0008.79,0001.02
2022-05-29 03:02:00,,0813.5,5.02,0.00,29.6,27.7,00.0,38.3,31.3,09.4,0000.0,0002.85,0007.88,0001.02
2022-05-29 03:03:00,,0813.5,4.99,0.00,29.5,27.3,00.0,38.3,31.2,09.3,0000.0,0002.84,0007.81,0001.01
2022-05-29 03:04:00,,0813.5,5.01,0.00,29.4,27.3,00.0,38.3,31.1,09.3,0000.0,0002.80,0007.79,0001.00
2022-05-29 03:05:00,,0813.5,5.01,0.00,29.4,27.3,00.0,38.3,31.1,09.4,0000.0,0002.77,0008.16,0001.00
2022-05-29 03:06:00,,0813.5,5.00,0.00,29.4,27.5,00.0,38.3,31.1,09.4,0000.0,0002.77,0009.09,0000.99
2022-05-29 03:07:00,,0813.6,5.00,0.00,29.4,27.6,00.0,38.3,31.1,09.2,0000.0,0002.80,0009.30,0000.99
2022-05-29 03:08:00,,0813.5,5.00,0.00,29.3,27.8,00.0,38.3,31.2,09.2,0000.0,0002.83,0009.91,0001.00
2022-05-29 03:09:00,,0813.5,5.01,0.00,29.4,27.9,00.0,38.2,31.2,09.2,0000.0,0002.79,0009.91,0001.01
2022-05-29 03:10:00,,0813.5,4.99,0.00,29.4,28.0,00.0,38.2,31.2,09.3,0000.0,0002.82,0009.93,0001.02
2022-05-29 03:11:00,,0813.5,5.00,0.00,29.4,28.1,00.0,38.3,31.3,09.1,0000.0,0002.83,0010.31,0001.01
2022-05-29 03:12:00,,0813.5,5.01,0.00,29.4,28.2,00.0,38.3,31.3,09.0,0000.0,0002.83,0010.41,0001.01
2022-05-29 03:13:00,,0813.5,5.00,0.00,29.4,28.3,00.0,38.3,31.3,09.1,0000.0,0002.86,0010.47,0001.02
2022-05-29 03:14:00,,0813.5,4.99,0.00,29.5,28.4,00.0,38.3,31.4,09.0,0000.0,0002.86,0010.40,0001.04
2022-05-29 03:15:00,,0813.5,5.01,0.00,29.5,28.5,00.0,38.3,31.4,09.1,0000.0,0002.98,0010.58,0001.06
2022-05-29 03:16:00,,0813.6,5.00,0.00,29.5,28.5,00.0,38.3,31.4,09.2,0000.0,0002.91,0010.19,0001.05
2022-05-29 03:17:00,,0813.6,5.01,0.00,29.5,28.6,00.0,38.3,31.4,09.2,0000.0,0002.88,0009.50,0001.05
2022-05-29 03:18:00,,0813.6,4.99,0.00,29.6,28.6,00.0,38.4,31.5,09.1,0000.0,0002.91,0009.53,0001.06
2022-05-29 03:19:00,,0813.5,5.00,0.00,29.6,28.7,00.0,38.4,31.5,09.1,0000.0,0002.91,0009.27,0001.06
2022-05-29 03:20:00,,0813.5,5.00,0.00,29.6,28.7,00.0,38.4,31.5,09.0,0000.0,0003.02,0009.88,0001.07
2022-05-29 03:21:00,,0813.5,5.00,0.00,29.6,28.8,00.0,38.4,31.6,09.1,0000.0,0003.01,0009.81,0001.07
2022-05-29 03:22:00,,0813.5,5.00,0.00,29.7,28.7,00.0,38.4,31.6,09.0,0000.0,0003.07,0009.57,0001.07
2022-05-29 03:23:00,,0813.5,5.00,0.00,29.6,28.0,00.0,38.4,31.4,09.0,0000.0,0003.11,0010.15,0001.08
2022-05-29 03:24:00,,0813.5,5.00,0.00,29.5,27.4,00.0,38.3,31.2,09.1,0000.0,0003.10,0011.30,0001.08
2022-05-29 03:25:00,,0813.6,5.00,0.00,29.5,27.2,00.0,38.3,31.1,09.2,0000.0,0003.13,0011.67,0001.06
2022-05-29 03:26:00,,0813.5,5.01,0.00,29.4,27.3,00.0,38.3,31.1,09.3,0000.0,0003.09,0011.68,0001.04
2022-05-29 03:27:00,,0813.5,4.99,0.00,29.4,27.4,00.0,38.3,31.1,09.3,0000.0,0003.15,0011.80,0001.04
2022-05-29 03:28:00,,0813.5,5.00,0.00,29.4,27.6,00.0,38.3,31.1,09.4,0000.0,0003.16,0011.75,0001.05
2022-05-29 03:29:00,,0813.5,5.00,0.00,29.4,27.7,00.0,38.3,31.2,09.3,0000.0,0003.16,0012.08,0001.06
2022-05-29 03:30:00,,0813.7,5.01,0.00,29.4,27.8,00.0,38.3,31.2,09.3,0000.0,0003.17,0012.44,0001.07
2022-05-29 03:31:00,,0813.9,5.02,0.00,29.4,27.9,00.0,38.3,31.2,09.3,0000.0,0003.17,0012.00,0001.07
2022-05-29 03:32:00,,0813.6,5.00,0.00,29.4,28.0,00.0,38.3,31.2,09.3,0000.0,0003.16,0012.20,0001.08
2022-05-29 03:33:00,,0813.8,5.00,0.00,29.4,28.1,00.0,38.3,31.3,09.3,0000.0,0003.13,0012.12,0001.09
2022-05-29 03:34:00,,0813.6,5.00,0.00,29.4,28.2,00.0,38.3,31.3,09.3,0000.0,0003.13,0013.03,0001.10
2022-05-29 03:35:00,,0813.6,4.99,0.00,29.4,28.3,00.0,38.3,31.3,09.4,0000.0,0003.12,0013.16,0001.11
2022-05-29 03:36:00,,0813.7,5.01,0.00,29.4,28.4,00.0,38.3,31.3,09.4,0000.0,0003.03,0012.97,0001.11
2022-05-29 03:37:00,,0813.5,4.99,0.00,29.5,28.4,00.0,38.3,31.4,09.4,0000.0,0003.04,0012.91,0001.13
2022-05-29 03:38:00,,0813.5,5.00,0.00,29.5,28.5,00.0,38.3,31.4,09.4,0000.0,0002.98,0013.15,0001.13
2022-05-29 03:39:00,,0813.6,5.00,0.00,29.5,28.5,00.0,38.4,31.4,09.4,0000.0,0002.95,0013.60,0001.12
2022-05-29 03:40:00,,0813.5,4.98,0.00,29.5,28.6,00.0,38.4,31.4,09.4,0000.0,0002.96,0013.60,0001.13
2022-05-29 03:41:00,,0813.5,5.01,0.00,29.6,28.6,00.0,38.4,31.5,09.4,0000.0,0003.06,0013.43,0001.14
2022-05-29 03:42:00,,0813.5,5.01,0.00,29.6,28.7,00.0,38.4,31.5,09.3,0000.0,0002.99,0013.67,0001.13
2022-05-29 03:43:00,,0813.5,4.99,0.00,29.6,28.7,00.0,38.4,31.5,09.2,0000.0,0003.01,0013.55,0001.13
2022-05-29 03:44:00,,0813.5,4.99,0.00,29.6,28.7,00.0,38.4,31.5,09.3,0000.0,0003.00,0013.82,0001.13
2022-05-29 03:45:00,,0813.6,5.00,0.00,29.6,28.7,00.0,38.4,31.5,09.3,0000.0,0002.94,0012.52,0001.12
2022-05-29 03:46:00,,0813.6,5.00,0.00,29.7,28.8,00.0,38.5,31.6,09.3,0000.0,0002.97,0010.95,0001.13
2022-05-29 03:47:00,,0813.7,5.01,0.00,29.7,28.8,00.0,38.5,31.6,09.3,0000.0,0003.02,0010.22,0001.15
2022-05-29 03:48:00,,0813.5,5.00,0.00,29.7,28.8,00.0,38.5,31.6,09.2,0000.0,0003.04,0010.45,0001.16
2022-05-29 03:49:00,,0813.5,4.99,0.00,29.7,28.6,00.0,38.5,31.6,09.1,0000.0,0003.06,0010.75,0001.16
2022-05-29 03:50:00,,0813.5,5.01,0.00,29.6,27.7,00.0,38.4,31.3,09.2,0000.0,0003.12,0010.51,0001.19
2022-05-29 03:51:00,,0813.5,4.98,0.00,29.6,27.3,00.0,38.4,31.2,09.2,0000.0,0003.18,0010.97,0001.19
2022-05-29 03:52:00,,0813.6,5.01,0.00,29.5,27.2,00.0,38.4,31.1,09.2,0000.0,0003.12,0010.53,0001.19
2022-05-29 03:53:00,,0813.6,5.00,0.00,29.4,27.3,00.0,38.4,31.1,09.3,0000.0,0003.12,0009.98,0001.20
2022-05-29 03:54:00,,0813.5,4.99,0.00,29.4,27.4,00.0,38.3,31.1,09.2,0000.0,0003.10,0009.69,0001.20
2022-05-29 03:55:00,,0813.5,5.00,0.00,29.4,27.5,00.0,38.3,31.1,09.2,0000.0,0003.13,0009.87,0001.21
2022-05-29 03:56:00,,0813.5,5.01,0.00,29.4,27.7,00.0,38.3,31.1,09.3,0000.0,0003.15,0011.81,0001.21
2022-05-29 03:57:00,,0813.6,5.01,0.00,29.4,27.8,00.0,38.3,31.2,09.4,0000.0,0003.12,0012.13,0001.21
2022-05-29 03:58:00,,0813.5,5.00,0.00,29.4,27.9,00.0,38.3,31.2,09.4,0000.0,0003.18,0012.73,0001.20
2022-05-29 03:59:00,,0813.5,5.00,0.00,29.4,28.0,00.0,38.3,31.2,09.7,0000.0,0003.20,0012.59,0001.19
